Time,TemperatureF,DewpointF,PressureIn,WindDirection,WindDirectionDegrees,WindSpeedMPH,WindSpeedGustMPH,Humidity,HourlyPrecipIn,Conditions,Clouds,dailyrainin,SoftwareType,DateUTC
2013-02-02 00:03:00,22.0,10.0,30.36,NNW,344,0.0,0.0,60,0.00,,,0.00,,2013-02-02 05:03:00,
2013-02-02 00:12:00,22.0,10.0,30.36,NNW,344,0.0,0.0,60,0.00,,,0.00,,2013-02-02 05:12:00,
2013-02-02 00:22:00,23.0,10.0,30.36,NNW,344,0.0,0.0,57,0.00,,,0.00,,2013-02-02 05:22:00,
2013-02-02 00:33:00,22.0,11.0,30.36,NNW,344,0.0,0.0,63,0.00,,,0.00,,2013-02-02 05:33:00,
2013-02-02 00:41:00,22.0,11.0,30.36,NNW,344,0.0,0.0,63,0.00,,,0.00,,2013-02-02 05:41:00,
2013-02-02 00:52:00,21.0,11.0,30.36,NNW,344,0.0,0.0,65,0.00,,,0.00,,2013-02-02 05:52:00,
2013-02-02 01:02:00,21.0,11.0,30.35,NNW,344,0.0,0.0,66,0.00,,,0.00,,2013-02-02 06:02:00,
2013-02-02 01:12:00,21.0,11.0,30.35,NNW,344,0.0,0.0,66,0.00,,,0.00,,2013-02-02 06:12:00,
2013-02-02 01:22:00,21.0,11.0,30.35,ENE,63,1.0,2.0,65,0.00,,,0.00,,2013-02-02 06:22:00,
2013-02-02 01:32:00,21.0,12.0,30.35,ENE,67,1.0,3.0,68,0.00,,,0.00,,2013-02-02 06:32:00,
2013-02-02 01:42:00,21.0,12.0,30.35,ENE,67,1.0,3.0,68,0.00,,,0.00,,2013-02-02 06:42:00,
2013-02-02 01:52:00,21.0,12.0,30.35,NE,43,2.0,2.0,68,0.00,,,0.00,,2013-02-02 06:52:00,
2013-02-02 02:02:00,21.0,12.0,30.33,North,9,2.0,4.0,67,0.00,,,0.00,,2013-02-02 07:02:00,
2013-02-02 02:12:00,21.0,12.0,30.33,West,275,2.0,2.0,68,0.00,,,0.00,,2013-02-02 07:12:00,
2013-02-02 02:21:00,21.0,12.0,30.33,West,275,2.0,2.0,68,0.00,,,0.00,,2013-02-02 07:21:00,
2013-02-02 02:32:00,21.0,12.0,30.33,SSW,211,1.0,3.0,68,0.00,,,0.00,,2013-02-02 07:32:00,
2013-02-02 02:42:00,21.0,12.0,30.33,SSW,211,1.0,3.0,68,0.00,,,0.00,,2013-02-02 07:42:00,
2013-02-02 02:52:00,21.0,12.0,30.33,SSW,211,1.0,3.0,68,0.00,,,0.00,,2013-02-02 07:52:00,
2013-02-02 03:01:00,21.0,12.0,30.33,SSW,211,1.0,3.0,68,0.00,,,0.00,,2013-02-02 08:01:00,
2013-02-02 03:11:00,21.0,12.0,30.33,SSW,211,1.0,3.0,68,0.00,,,0.00,,2013-02-02 08:11:00,
2013-02-02 03:32:00,20.0,12.0,30.33,SSW,198,0.0,1.0,72,0.00,,,0.00,,2013-02-02 08:32:00,
2013-02-02 03:42:00,20.0,12.0,30.33,SSW,198,0.0,1.0,72,0.00,,,0.00,,2013-02-02 08:42:00,
2013-02-02 03:53:00,20.0,12.0,30.33,SSW,198,0.0,1.0,72,0.00,,,0.00,,2013-02-02 08:53:00,
2013-02-02 04:01:00,20.0,12.0,30.33,SSW,198,0.0,1.0,72,0.00,,,0.00,,2013-02-02 09:01:00,
2013-02-02 04:11:00,20.0,12.0,30.33,SSW,198,0.0,1.0,72,0.00,,,0.00,,2013-02-02 09:11:00,
2013-02-02 04:32:00,19.0,13.0,30.33,SSW,207,1.0,2.0,76,0.00,,,0.00,,2013-02-02 09:32:00,
2013-02-02 04:42:00,19.0,13.0,30.33,SSW,207,1.0,2.0,76,0.00,,,0.00,,2013-02-02 09:42:00,
2013-02-02 04:52:00,19.0,13.0,30.33,SSW,207,0.0,1.0,77,0.00,,,0.00,,2013-02-02 09:52:00,
2013-02-02 05:02:00,19.0,14.0,30.33,SSW,207,0.0,1.0,79,0.00,,,0.00,,2013-02-02 10:02:00,
2013-02-02 05:11:00,19.0,14.0,30.33,SSW,207,0.0,1.0,79,0.00,,,0.00,,2013-02-02 10:11:00,
2013-02-02 05:21:00,18.0,13.0,30.34,SSW,207,0.0,0.0,80,0.00,,,0.00,,2013-02-02 10:21:00,
2013-02-02 05:32:00,18.0,13.0,30.33,SSW,207,0.0,0.0,81,0.00,,,0.00,,2013-02-02 10:32:00,
2013-02-02 05:42:00,18.0,13.0,30.33,SSW,207,0.0,0.0,81,0.00,,,0.00,,2013-02-02 10:42:00,
2013-02-02 05:52:00,18.0,13.0,30.33,SSW,207,0.0,0.0,81,0.00,,,0.00,,2013-02-02 10:52:00,
2013-02-02 06:02:00,17.0,12.0,30.34,SSW,207,0.0,0.0,82,0.00,,,0.00,,2013-02-02 11:02:00,
2013-02-02 06:11:00,17.0,12.0,30.34,SSW,207,0.0,0.0,82,0.00,,,0.00,,2013-02-02 11:11:00,
2013-02-02 06:22:00,17.0,13.0,30.34,SSW,207,0.0,0.0,83,0.00,,,0.00,,2013-02-02 11:22:00,
2013-02-02 06:32:00,17.0,13.0,30.34,SSW,207,0.0,0.0,83,0.00,,,0.00,,2013-02-02 11:32:00,
2013-02-02 06:42:00,17.0,13.0,30.34,SSW,207,0.0,0.0,83,0.00,,,0.00,,2013-02-02 11:42:00,
2013-02-02 06:52:00,17.0,13.0,30.34,SSW,207,0.0,0.0,84,0.00,,,0.00,,2013-02-02 11:52:00,
2013-02-02 07:02:00,17.0,14.0,30.35,SSW,207,0.0,0.0,86,0.00,,,0.00,,2013-02-02 12:02:00,
2013-02-02 07:03:00,16.0,13.0,30.35,SSW,207,0.0,0.0,86,0.00,,,0.00,,2013-02-02 12:03:00,
2013-02-02 07:11:00,17.0,14.0,30.35,SSW,207,0.0,0.0,86,0.00,,,0.00,,2013-02-02 12:11:00,
2013-02-02 07:22:00,16.0,13.0,30.35,SSW,207,0.0,0.0,86,0.00,,,0.00,,2013-02-02 12:22:00,
2013-02-02 07:32:00,16.0,13.0,30.35,SSW,207,0.0,0.0,86,0.00,,,0.00,,2013-02-02 12:32:00,
2013-02-02 07:42:00,16.0,13.0,30.35,SSW,207,0.0,0.0,86,0.00,,,0.00,,2013-02-02 12:42:00,
2013-02-02 07:52:00,16.0,13.0,30.35,SSW,207,0.0,0.0,86,0.00,,,0.00,,2013-02-02 12:52:00,
2013-02-02 08:33:00,19.0,15.0,30.36,SSW,207,0.0,0.0,85,0.00,,,0.00,,2013-02-02 13:33:00,
2013-02-02 08:42:00,19.0,15.0,30.36,SSW,207,0.0,0.0,85,0.00,,,0.00,,2013-02-02 13:42:00,
2013-02-02 08:52:00,19.0,15.0,30.36,SSW,207,0.0,0.0,85,0.00,,,0.00,,2013-02-02 13:52:00,
2013-02-02 09:03:00,19.0,15.0,30.36,SSW,207,0.0,0.0,85,0.00,,,0.00,,2013-02-02 14:03:00,
2013-02-02 09:11:00,19.0,15.0,30.36,SSW,207,0.0,0.0,85,0.00,,,0.00,,2013-02-02 14:11:00,
2013-02-02 09:22:00,24.0,14.0,30.36,SW,222,3.0,6.0,65,0.00,,,0.00,,2013-02-02 14:22:00,
2013-02-02 09:33:00,24.0,13.0,30.35,SW,231,5.0,8.0,62,0.00,,,0.00,,2013-02-02 14:33:00,
2013-02-02 09:42:00,24.0,13.0,30.35,SW,231,5.0,8.0,62,0.00,,,0.00,,2013-02-02 14:42:00,
2013-02-02 09:52:00,25.0,13.0,30.35,WSW,237,4.0,8.0,61,0.00,,,0.00,,2013-02-02 14:52:00,
2013-02-02 10:03:00,25.0,13.0,30.34,WSW,246,6.0,9.0,60,0.00,,,0.00,,2013-02-02 15:03:00,
2013-02-02 10:12:00,25.0,13.0,30.34,WSW,246,6.0,9.0,60,0.00,,,0.00,,2013-02-02 15:12:00,
2013-02-02 10:22:00,25.0,13.0,30.33,WSW,242,3.0,8.0,61,0.00,,,0.00,,2013-02-02 15:22:00,
2013-02-02 10:32:00,25.0,13.0,30.33,SW,236,3.0,9.0,60,0.00,,,0.00,,2013-02-02 15:32:00,
2013-02-02 10:42:00,25.0,13.0,30.33,SW,236,3.0,9.0,60,0.00,,,0.00,,2013-02-02 15:42:00,
2013-02-02 10:52:00,26.0,14.0,30.32,SW,216,3.0,9.0,60,0.00,,,0.00,,2013-02-02 15:52:00,
2013-02-02 11:03:00,26.0,14.0,30.31,WSW,246,3.0,7.0,61,0.00,,,0.00,,2013-02-02 16:03:00,
2013-02-02 11:12:00,26.0,14.0,30.31,WSW,246,3.0,7.0,61,0.00,,,0.00,,2013-02-02 16:12:00,
2013-02-02 11:22:00,27.0,15.0,30.29,SSW,192,2.0,7.0,60,0.00,,,0.00,,2013-02-02 16:22:00,
2013-02-02 11:32:00,27.0,15.0,30.29,SSW,211,3.0,6.0,59,0.00,,,0.00,,2013-02-02 16:32:00,
2013-02-02 11:42:00,27.0,15.0,30.29,SSW,211,3.0,6.0,59,0.00,,,0.00,,2013-02-02 16:42:00,
2013-02-02 11:52:00,29.0,14.0,30.28,SW,218,9.0,13.0,54,0.00,,,0.00,,2013-02-02 16:52:00,
2013-02-02 12:03:00,30.0,15.0,30.27,WSW,247,8.0,14.0,53,0.00,,,0.00,,2013-02-02 17:03:00,
2013-02-02 12:11:00,30.0,15.0,30.27,WSW,247,8.0,14.0,53,0.00,,,0.00,,2013-02-02 17:11:00,
2013-02-02 12:22:00,31.0,15.0,30.26,SW,234,8.0,12.0,50,0.00,,,0.00,,2013-02-02 17:22:00,
2013-02-02 12:32:00,32.0,14.0,30.24,SW,221,7.0,14.0,46,0.00,,,0.00,,2013-02-02 17:32:00,
2013-02-02 12:42:00,32.0,14.0,30.24,SW,221,7.0,14.0,46,0.00,,,0.00,,2013-02-02 17:42:00,
2013-02-02 12:52:00,33.0,15.0,30.23,WSW,243,5.0,13.0,47,0.00,,,0.00,,2013-02-02 17:52:00,
2013-02-02 13:03:00,33.0,15.0,30.22,WSW,242,8.0,12.0,46,0.00,,,0.00,,2013-02-02 18:03:00,
2013-02-02 13:12:00,33.0,15.0,30.22,WSW,242,8.0,12.0,46,0.00,,,0.00,,2013-02-02 18:12:00,
2013-02-02 13:22:00,33.0,15.0,30.20,SW,236,5.0,11.0,46,0.00,,,0.00,,2013-02-02 18:22:00,
2013-02-02 13:32:00,34.0,14.0,30.20,West,259,7.0,14.0,44,0.00,,,0.00,,2013-02-02 18:32:00,
2013-02-02 13:42:00,34.0,14.0,30.20,West,259,7.0,14.0,44,0.00,,,0.00,,2013-02-02 18:42:00,
2013-02-02 13:52:00,35.0,15.0,30.19,WSW,256,7.0,11.0,43,0.00,,,0.00,,2013-02-02 18:52:00,
2013-02-02 14:02:00,35.0,14.0,30.17,WSW,239,6.0,12.0,42,0.00,,,0.00,,2013-02-02 19:02:00,
2013-02-02 14:12:00,35.0,14.0,30.17,WSW,239,6.0,12.0,42,0.00,,,0.00,,2013-02-02 19:12:00,
2013-02-02 14:21:00,35.0,13.0,30.16,SW,233,5.0,9.0,39,0.00,,,0.00,,2013-02-02 19:21:00,
2013-02-02 14:32:00,35.0,13.0,30.14,SW,234,5.0,11.0,40,0.00,,,0.00,,2013-02-02 19:32:00,
2013-02-02 14:42:00,35.0,13.0,30.14,SW,234,5.0,11.0,40,0.00,,,0.00,,2013-02-02 19:42:00,
2013-02-02 14:52:00,35.0,12.0,30.14,WSW,242,9.0,14.0,38,0.00,,,0.00,,2013-02-02 19:52:00,
2013-02-02 15:01:00,35.0,13.0,30.14,South,185,6.0,16.0,40,0.00,,,0.00,,2013-02-02 20:01:00,
2013-02-02 15:11:00,35.0,13.0,30.14,South,185,6.0,16.0,40,0.00,,,0.00,,2013-02-02 20:11:00,
2013-02-02 15:22:00,35.0,13.0,30.14,SSW,196,4.0,12.0,40,0.00,,,0.00,,2013-02-02 20:22:00,
2013-02-02 15:32:00,36.0,15.0,30.12,SW,231,4.0,11.0,41,0.00,,,0.00,,2013-02-02 20:32:00,
2013-02-02 15:42:00,36.0,15.0,30.12,SW,231,4.0,11.0,41,0.00,,,0.00,,2013-02-02 20:42:00,
2013-02-02 15:52:00,36.0,15.0,30.13,WSW,240,6.0,10.0,42,0.00,,,0.00,,2013-02-02 20:52:00,
2013-02-02 16:02:00,36.0,15.0,30.12,WSW,254,5.0,11.0,41,0.00,,,0.00,,2013-02-02 21:02:00,
2013-02-02 16:11:00,36.0,15.0,30.12,WSW,254,5.0,11.0,41,0.00,,,0.00,,2013-02-02 21:11:00,
2013-02-02 16:21:00,38.0,16.0,30.11,SW,219,4.0,8.0,40,0.00,,,0.00,,2013-02-02 21:21:00,
2013-02-02 16:32:00,37.0,14.0,30.10,SW,217,5.0,9.0,39,0.00,,,0.00,,2013-02-02 21:32:00,
2013-02-02 16:42:00,37.0,14.0,30.10,SW,217,5.0,9.0,39,0.00,,,0.00,,2013-02-02 21:42:00,
2013-02-02 16:52:00,38.0,15.0,30.10,WSW,242,7.0,13.0,38,0.00,,,0.00,,2013-02-02 21:52:00,
2013-02-02 17:02:00,37.0,14.0,30.09,WSW,240,7.0,12.0,38,0.00,,,0.00,,2013-02-02 22:02:00,
2013-02-02 17:12:00,37.0,14.0,30.09,WSW,240,7.0,12.0,38,0.00,,,0.00,,2013-02-02 22:12:00,
2013-02-02 17:21:00,38.0,15.0,30.09,WSW,253,3.0,11.0,39,0.00,,,0.00,,2013-02-02 22:21:00,
2013-02-02 17:32:00,37.0,15.0,30.09,South,190,3.0,7.0,40,0.00,,,0.00,,2013-02-02 22:32:00,
2013-02-02 17:42:00,37.0,15.0,30.09,South,190,3.0,7.0,40,0.00,,,0.00,,2013-02-02 22:42:00,
2013-02-02 17:52:00,36.0,15.0,30.09,SW,218,3.0,5.0,41,0.00,,,0.00,,2013-02-02 22:52:00,
2013-02-02 18:02:00,36.0,15.0,30.08,SSW,202,2.0,6.0,41,0.00,,,0.00,,2013-02-02 23:02:00,
2013-02-02 18:11:00,36.0,15.0,30.08,SSW,202,2.0,6.0,41,0.00,,,0.00,,2013-02-02 23:11:00,
2013-02-02 18:22:00,36.0,15.0,30.07,SSW,198,2.0,4.0,41,0.00,,,0.00,,2013-02-02 23:22:00,
2013-02-02 18:32:00,35.0,14.0,30.07,SW,232,1.0,3.0,41,0.00,,,0.00,,2013-02-02 23:32:00,
2013-02-02 18:42:00,35.0,14.0,30.07,SW,232,1.0,3.0,41,0.00,,,0.00,,2013-02-02 23:42:00,
2013-02-02 18:52:00,35.0,15.0,30.07,SW,232,0.0,2.0,43,0.00,,,0.00,,2013-02-02 23:52:00,
2013-02-02 19:02:00,34.0,14.0,30.07,SW,232,0.0,1.0,44,0.00,,,0.00,,2013-02-03 00:02:00,
2013-02-02 19:11:00,34.0,14.0,30.07,SW,232,0.0,1.0,44,0.00,,,0.00,,2013-02-03 00:11:00,
2013-02-02 19:22:00,32.0,15.0,30.06,SW,227,0.0,0.0,48,0.00,,,0.00,,2013-02-03 00:22:00,
2013-02-02 19:32:00,32.0,15.0,30.06,SW,227,0.0,0.0,50,0.00,,,0.00,,2013-02-03 00:32:00,
2013-02-02 19:42:00,32.0,15.0,30.06,SW,227,0.0,0.0,50,0.00,,,0.00,,2013-02-03 00:42:00,
2013-02-02 19:52:00,32.0,15.0,30.06,SW,227,0.0,0.0,48,0.00,,,0.00,,2013-02-03 00:52:00,
2013-02-02 20:02:00,33.0,19.0,30.06,SW,227,0.0,0.0,56,0.00,,,0.00,,2013-02-03 01:02:00,
2013-02-02 20:11:00,33.0,19.0,30.06,WSW,242,0.0,4.0,57,0.00,,,0.00,,2013-02-03 01:11:00,
2013-02-02 20:21:00,33.0,19.0,30.06,WSW,242,0.0,4.0,57,0.00,,,0.00,,2013-02-03 01:21:00,
2013-02-02 20:32:00,33.0,17.0,30.06,WSW,242,0.0,0.0,51,0.00,,,0.00,,2013-02-03 01:32:00,
2013-02-02 20:42:00,33.0,17.0,30.06,WSW,242,0.0,0.0,51,0.00,,,0.00,,2013-02-03 01:42:00,
2013-02-02 20:52:00,33.0,20.0,30.06,WNW,296,1.0,2.0,59,0.00,,,0.00,,2013-02-03 01:52:00,
2013-02-02 21:01:00,33.0,19.0,30.05,ESE,104,1.0,2.0,56,0.00,,,0.00,,2013-02-03 02:01:00,
2013-02-02 21:11:00,33.0,19.0,30.05,ESE,104,1.0,2.0,56,0.00,,,0.00,,2013-02-03 02:11:00,
2013-02-02 21:21:00,33.0,19.0,30.05,West,279,0.0,2.0,55,0.00,,,0.00,,2013-02-03 02:21:00,
2013-02-02 21:32:00,33.0,17.0,30.06,West,279,0.0,0.0,52,0.00,,,0.00,,2013-02-03 02:32:00,
2013-02-02 21:42:00,33.0,17.0,30.06,West,279,0.0,0.0,52,0.00,,,0.00,,2013-02-03 02:42:00,
2013-02-02 21:52:00,33.0,19.0,30.05,NNW,341,1.0,2.0,56,0.00,,,0.00,,2013-02-03 02:52:00,
2013-02-02 22:02:00,34.0,22.0,30.06,WSW,258,2.0,3.0,60,0.00,,,0.00,,2013-02-03 03:02:00,
2013-02-02 22:11:00,34.0,23.0,30.06,NW,321,2.0,3.0,65,0.00,,,0.00,,2013-02-03 03:11:00,
2013-02-02 22:22:00,34.0,23.0,30.06,NW,321,2.0,3.0,65,0.00,,,0.00,,2013-02-03 03:22:00,
2013-02-02 22:32:00,35.0,25.0,30.06,WNW,300,2.0,3.0,66,0.00,,,0.00,,2013-02-03 03:32:00,
2013-02-02 22:42:00,35.0,25.0,30.06,WNW,300,2.0,3.0,66,0.00,,,0.00,,2013-02-03 03:42:00,
2013-02-02 22:52:00,35.0,26.0,30.06,WNW,286,3.0,5.0,68,0.00,,,0.00,,2013-02-03 03:52:00,
2013-02-02 23:01:00,35.0,26.0,30.05,West,269,4.0,6.0,70,0.00,,,0.00,,2013-02-03 04:01:00,
2013-02-02 23:11:00,35.0,27.0,30.04,WSW,250,4.0,7.0,72,0.00,,,0.00,,2013-02-03 04:11:00,
2013-02-02 23:21:00,35.0,27.0,30.04,WSW,250,4.0,7.0,72,0.00,,,0.00,,2013-02-03 04:21:00,
2013-02-02 23:32:00,34.0,26.0,30.04,WSW,245,4.0,9.0,73,0.00,,,0.00,,2013-02-03 04:32:00,
2013-02-02 23:42:00,34.0,26.0,30.04,WSW,245,4.0,9.0,73,0.00,,,0.00,,2013-02-03 04:42:00,
2013-02-02 23:52:00,34.0,27.0,30.03,WSW,249,3.0,7.0,75,0.00,,,0.00,,2013-02-03 04:52:00,